Epoch 2022 Jan. 21.0 TT = JDT 2459600.5 T 2021 Oct. 27.46209 TT Rudenko q 2.5432640 (2000.0) P Q n 0.14920258 Peri. 187.50194 -0.67063339 +0.74111185 a 3.5206146 Node 40.38991 -0.67801324 -0.59508719 e 0.2776080 Incl. 2.80294 -0.30091343 -0.31084474 P 6.61 From 251 observations 2015 Jan. 24-2021 Aug. 3, mean residual 0".6.
m1 = 10.0 + 5 logΔ + 20.0 log r ※ 灰色の曲線は、m1 = 7.5 + 5 logΔ + 20.0 log r の光度曲線です。